TimeCDT,TemperatureF,Dew PointF,Humidity,Sea Level PressureIn,VisibilityMPH,Wind Direction,Wind SpeedMPH,Gust SpeedMPH,PrecipitationIn,Events,Conditions,WindDirDegrees,DateUTC
12:53 AM,64.9,61.0,87,29.68,10.0,SW,9.2,-,N/A,,Clear,220,2013-05-21 05:53:00
1:53 AM,64.9,59.0,81,29.69,10.0,WSW,10.4,-,N/A,,Clear,240,2013-05-21 06:53:00
2:53 AM,63.0,55.0,75,29.69,10.0,WSW,8.1,-,N/A,,Clear,250,2013-05-21 07:53:00
3:53 AM,62.1,51.1,67,29.71,10.0,WSW,8.1,-,N/A,,Clear,250,2013-05-21 08:53:00
4:53 AM,60.1,50.0,69,29.73,10.0,WSW,6.9,-,N/A,,Clear,240,2013-05-21 09:53:00
5:53 AM,57.0,48.9,74,29.73,10.0,WSW,4.6,-,N/A,,Clear,240,2013-05-21 10:53:00
6:53 AM,57.0,50.0,77,29.76,10.0,SW,5.8,-,N/A,,Clear,230,2013-05-21 11:53:00
7:53 AM,60.1,51.1,72,29.77,10.0,West,6.9,-,N/A,,Clear,270,2013-05-21 12:53:00
8:53 AM,63.0,52.0,67,29.77,10.0,Variable,5.8,-,N/A,,Clear,0,2013-05-21 13:53:00
9:53 AM,66.0,53.1,63,29.77,10.0,WSW,6.9,-,N/A,,Clear,250,2013-05-21 14:53:00
10:53 AM,66.9,53.1,61,29.77,10.0,SSW,9.2,-,N/A,,Clear,210,2013-05-21 15:53:00
11:53 AM,68.0,54.0,61,29.77,10.0,SSW,10.4,16.1,N/A,,Clear,210,2013-05-21 16:53:00
12:53 PM,69.1,52.0,54,29.74,10.0,SW,12.7,18.4,N/A,,Clear,230,2013-05-21 17:53:00
1:53 PM,71.1,53.1,53,29.74,10.0,WSW,10.4,-,N/A,,Clear,250,2013-05-21 18:53:00
2:53 PM,72.0,54.0,53,29.74,10.0,SW,10.4,-,N/A,,Clear,230,2013-05-21 19:53:00
3:53 PM,73.9,53.1,48,29.72,10.0,WSW,13.8,20.7,N/A,,Partly Cloudy,250,2013-05-21 20:53:00
4:53 PM,72.0,52.0,49,29.71,10.0,WSW,13.8,23.0,N/A,,Partly Cloudy,240,2013-05-21 21:53:00
5:53 PM,72.0,50.0,46,29.69,10.0,WSW,8.1,-,N/A,,Partly Cloudy,250,2013-05-21 22:53:00
6:53 PM,70.0,51.1,51,29.69,10.0,West,8.1,-,N/A,,Clear,270,2013-05-21 23:53:00
7:53 PM,68.0,50.0,52,29.69,10.0,WNW,5.8,-,N/A,,Scattered Clouds,290,2013-05-22 00:53:00
8:53 PM,64.9,48.0,54,29.70,10.0,WNW,4.6,-,N/A,,Clear,300,2013-05-22 01:53:00
9:53 PM,64.0,48.0,56,29.71,10.0,Calm,Calm,-,N/A,,Clear,0,2013-05-22 02:53:00
10:53 PM,61.0,48.0,62,29.74,10.0,WSW,3.5,-,N/A,,Clear,250,2013-05-22 03:53:00
11:53 PM,62.1,48.9,62,29.73,10.0,SSW,3.5,-,N/A,,Mostly Cloudy,210,2013-05-22 04:53:00